sat.trackr.live / text

‹ back to catalog

STARLINK-5832

NORAD 57063 · 2023-088R

PAYLOAD ACTIVE UNKNOWN

§ Identity

Operator
Country
US
Launch date
2023-06-22
Launch site
AFWTR
Launch vehicle
Mass (kg)
RCS (m²)

Purposes: comms

External: N2YO · Heavens-Above · Gunter

§ Orbital elements

Epoch: 2026-05-25T03:10:47.523072Z

Period
94.28 min
Inclination
43.0029°
Eccentricity
0.0001054
Mean motion
15.27298426 rev/d
Perigee alt
483.2 km
Apogee alt
484.6 km
Semi-major
6,862.0 km
B*
1.9584e-3
RAAN
38.9166°
Arg perigee
274.3000°
Mean anomaly
85.7731°
Rev number
16,202

§ Raw data

STARLINK-58321 57063U 23088R   26145.13249448  .00053558  00000+0  19584-2 0  99992 57063  43.0029  38.9166 0001054 274.3000  85.7731 15.27298426162028

JSON: /api/v1/satellites/57063 · /tle

For live sub-satellite position, see the globe view (requires WebGL).

§ Visibility from observer

Set your observer location to see the next 7 days of passes ≥ 10°. The values pass through the URL so the page stays shareable.

No JS? Fill the form by hand. The geolocation button needs JavaScript.